Location: Go?cza
(50.3372°N, 19.9313°E)
Time: 21:21:15
(UTC+00:00)

Cosmos 1300 Rocket - Pass Details

Date: 23 May 2024
Orbit: 597 x 623 km, 82.5° (Epoch: 22 June)

Event Time Altitude Azimuth Distance (km) Brightness Sun altitude
Rises 01:10:43 0° 343° (NNW) 2,877 7.6 -11.3°
Reaches altitude 10° 01:13:02 10° 337° (NNW) 1,964 6.5 -11.1°
Maximum altitude 01:17:05 40° 268° (W) 899 4.1 -10.7°
Enters shadow 01:20:33 13° 202° (SSW) 1,733 5.2 -10.4°
